DW4719 Vilanova I la Geltru ES current weather conditions

sailwx.info

Wind from 248 at 4 knots

Air temperature 13.3° C
Dewpoint 3.4° C

Last reported at 2015-Jan-29 11:50 UTC.
Time now 2015-Jan-29 12:20 UTC

Location: N 41°13' E 001°44'.
View on Google Maps.

See reports from other nearby stations

  
Tides and Currents Weather Stations Pressure Air Temp Water Temp Dewpoint Dewpoint Depression Visibility Wind Speed Wind Dir Waves Ship Positions
date/time (UTC)wind fromknots sea level pressurealtimeterstation pressurevisibilityair tempwater tempwave heightnotes
2015-Jan-29 11:50 248 4 13.3
2015-Jan-29 11:45 257 1 13.9
2015-Jan-29 11:41 236 1 13.9
2015-Jan-29 11:35 251 1 13.9
2015-Jan-29 11:30 258 3 13.9
2015-Jan-29 11:25 251 4 13.9
2015-Jan-29 11:20 281 3 13.9
2015-Jan-29 11:15 287 3 14.4
2015-Jan-29 11:10 284 6 14.4
2015-Jan-29 11:03 267 6 14.4
2015-Jan-29 11:00 305 4 13.9
2015-Jan-29 10:55 265 1 13.9
2015-Jan-29 10:50 275 2 13.9
2015-Jan-29 10:45 313 3 13.9
2015-Jan-29 10:40 356 2 13.9
2015-Jan-29 10:35 260 13.9
2015-Jan-29 10:30 254 13.9
2015-Jan-29 10:25 254 1 13.9
2015-Jan-29 10:20 288 1 13.9
2015-Jan-29 10:14 284 1 13.3
2015-Jan-29 10:10 247 2 13.3
2015-Jan-29 10:04 299 2 12.2
2015-Jan-29 10:00 360 0 11.1
2015-Jan-29 09:55 281 10.6
2015-Jan-29 09:50 281 10.6
2015-Jan-29 09:44 281 10.0
2015-Jan-29 09:40 281 9.4
2015-Jan-29 09:35 281 9.4
2015-Jan-29 09:30 281 8.9
2015-Jan-29 09:25 360 8.3
2015-Jan-29 09:20 047 8.3
2015-Jan-29 09:14 047 8.3
2015-Jan-29 09:10 045 7.8
2015-Jan-29 09:05 044 7.8
2015-Jan-29 09:00 044 7.8
2015-Jan-29 08:55 045 7.8
2015-Jan-29 08:50 045 7.8
2015-Jan-29 08:46 045 7.8
2015-Jan-29 08:40 045 7.2
2015-Jan-29 08:35 045 7.2
2015-Jan-29 08:30 045 7.2
2015-Jan-29 08:25 045 6.7
2015-Jan-29 08:20 045 6.7
2015-Jan-29 08:16 045 6.7
2015-Jan-29 08:10 045 6.7
2015-Jan-29 08:05 045 6.1
2015-Jan-29 08:00 045 6.1
2015-Jan-29 07:55 045 6.1
2015-Jan-29 07:50 045 5.6
2015-Jan-29 07:45 045 5.6
2015-Jan-29 07:40 045 5.6
2015-Jan-29 07:35 045 5.6
2015-Jan-29 07:30 045 5.6
2015-Jan-29 07:25 048 5.6
2015-Jan-29 07:20 048 5.6
2015-Jan-29 07:15 048 5.6
2015-Jan-29 07:10 048 5.6
2015-Jan-29 07:05 049 5.6
2015-Jan-29 07:00 048 5.6
2015-Jan-29 06:55 048 5.6
2015-Jan-29 06:49 044 5.6
2015-Jan-29 06:45 047 5.6
2015-Jan-29 05:49 040 6.1
2015-Jan-29 05:45 040 6.1
2015-Jan-29 05:40 040 6.1
2015-Jan-29 05:35 040 6.1
2015-Jan-29 05:30 040 6.1
2015-Jan-29 05:25 041 6.1
2015-Jan-29 05:19 041 6.1
2015-Jan-29 05:15 041 6.1
2015-Jan-29 05:10 041 6.1
2015-Jan-29 05:04 041 6.1
2015-Jan-29 05:00 024 6.1
2015-Jan-29 04:55 025 6.1
2015-Jan-29 04:51 025 6.7
2015-Jan-29 04:45 044 6.7
2015-Jan-29 04:40 044 6.7
2015-Jan-29 04:35 044 6.7
2015-Jan-29 04:30 044 6.7
2015-Jan-29 04:25 044 6.7
2015-Jan-29 04:21 044 6.7
2015-Jan-29 04:15 044 6.7
2015-Jan-29 04:10 044 6.1
2015-Jan-29 04:05 044 6.7
2015-Jan-29 04:00 044 6.7
2015-Jan-29 03:55 044 6.1
2015-Jan-29 03:50 044 6.7
2015-Jan-29 03:45 044 6.7
2015-Jan-29 03:40 044 6.7
2015-Jan-29 03:33 044 6.7
2015-Jan-29 03:30 044 7.2
2015-Jan-29 03:24 044 7.2
2015-Jan-29 03:20 044 7.2
2015-Jan-29 03:15 044 7.2
2015-Jan-29 03:10 044 6.7
2015-Jan-29 03:05 044 6.7
2015-Jan-29 03:00 044 6.1
2015-Jan-29 02:55 044 6.1
2015-Jan-29 02:50 044 6.1
2015-Jan-29 02:45 044 6.1
2015-Jan-29 02:40 044 6.1
2015-Jan-29 02:35 044 6.7
2015-Jan-29 02:30 044 6.7
2015-Jan-29 02:24 044 6.7
2015-Jan-29 02:20 044 6.7
2015-Jan-29 02:15 044 6.1
2015-Jan-29 02:10 044 5.6
2015-Jan-29 02:05 044 5.6
2015-Jan-29 02:00 044 5.0
2015-Jan-29 01:54 044 5.0
2015-Jan-29 01:50 044 5.0
2015-Jan-29 01:45 044 5.0
2015-Jan-29 01:40 044 5.0
2015-Jan-29 01:35 044 5.0
2015-Jan-29 01:30 044 0 5.0
2015-Jan-29 01:26 044 5.0
2015-Jan-29 01:20 044 5.0
2015-Jan-29 01:15 044 0 5.0
2015-Jan-29 01:10 044 0 5.0
2015-Jan-29 01:04 044 5.0
2015-Jan-29 01:00 044 0 5.0
2015-Jan-29 00:56 044 0 5.0
2015-Jan-29 00:50 042 0 5.0
2015-Jan-29 00:45 042 5.0
2015-Jan-29 00:40 042 5.0
2015-Jan-29 00:35 042 5.0
2015-Jan-29 00:30 042 0 5.0
2015-Jan-29 00:26 042 5.0
2015-Jan-29 00:20 042 5.0
2015-Jan-29 00:15 042 0 5.0
2015-Jan-29 00:10 041 1 5.0
2015-Jan-29 00:05 045 1 5.0
2015-Jan-29 00:00 045 1 5.0
2015-Jan-28 23:56 045 1 5.0
2015-Jan-28 23:50 045 1 5.0
2015-Jan-28 23:45 045 1 5.0
2015-Jan-28 23:40 045 0 5.0
2015-Jan-28 23:35 049 5.0
2015-Jan-28 23:30 049 5.0
2015-Jan-28 23:25 049 5.0
2015-Jan-28 23:20 049 5.6
2015-Jan-28 23:15 049 5.6
2015-Jan-28 23:10 049 5.6
2015-Jan-28 23:05 049 5.6
2015-Jan-28 23:00 049 5.6
2015-Jan-28 22:55 049 5.6
2015-Jan-28 22:50 049 5.6
2015-Jan-28 22:45 049 5.6
2015-Jan-28 22:40 049 0 5.6
2015-Jan-28 22:35 049 0 5.6
2015-Jan-28 22:30 047 0 5.6
2015-Jan-28 22:25 047 6.1
2015-Jan-28 22:20 047 0 6.1
2015-Jan-28 22:15 047 0 6.1
2015-Jan-28 22:10 038 6.1
2015-Jan-28 22:04 051 6.1
2015-Jan-28 21:59 052 6.1
2015-Jan-28 21:55 052 6.1
2015-Jan-28 21:50 052 6.1
2015-Jan-28 21:45 052 6.1
2015-Jan-28 21:40 051 6.1
2015-Jan-28 21:35 051 6.1
2015-Jan-28 21:29 041 6.1
2015-Jan-28 21:26 041 6.1
2015-Jan-28 21:20 041 6.1
2015-Jan-28 21:15 041 6.1
2015-Jan-28 21:10 040 6.1
2015-Jan-28 21:05 037 6.1
2015-Jan-28 21:01 032 6.1
2015-Jan-28 20:55 031 6.7
2015-Jan-28 20:50 031 6.7
2015-Jan-28 20:45 031 6.7
2015-Jan-28 20:40 032 6.7
2015-Jan-28 20:35 030 6.7
2015-Jan-28 20:31 030 6.7
2015-Jan-28 20:25 030 6.7
2015-Jan-28 20:20 030 6.7
2015-Jan-28 20:15 030 6.7
2015-Jan-28 20:10 030 7.2
2015-Jan-28 20:04 030 7.2
2015-Jan-28 20:01 083 7.2
2015-Jan-28 19:55 085 7.2
2015-Jan-28 19:50 085 7.8
2015-Jan-28 19:45 085 7.8
2015-Jan-28 19:40 085 7.8
2015-Jan-28 19:35 085 7.8
2015-Jan-28 19:30 085 7.8
2015-Jan-28 19:25 085 7.8
2015-Jan-28 19:20 085 7.8
2015-Jan-28 19:15 085 7.8
2015-Jan-28 19:10 085 8.3
2015-Jan-28 19:04 086 8.3
2015-Jan-28 19:00 086 8.9
2015-Jan-28 18:55 088 8.9
2015-Jan-28 18:50 088 8.9
2015-Jan-28 18:45 088 8.9
2015-Jan-28 18:40 089 8.9
2015-Jan-28 18:35 089 8.9
2015-Jan-28 18:30 089 9.4
2015-Jan-28 18:25 089 9.4
2015-Jan-28 18:20 089 9.4
2015-Jan-28 18:15 090 10.0
2015-Jan-28 18:10 090 10.0
2015-Jan-28 18:04 099 10.0
2015-Jan-28 18:00 099 10.0
2015-Jan-28 17:55 099 10.0
2015-Jan-28 17:50 136 10.6
2015-Jan-28 17:45 136 10.6
2015-Jan-28 17:40 136 10.6
2015-Jan-28 17:34 136 11.1
2015-Jan-28 17:30 136 11.1
2015-Jan-28 17:25 136 11.1
2015-Jan-28 17:20 136 11.1
2015-Jan-28 17:15 137 11.7
2015-Jan-28 17:10 136 11.7
2015-Jan-28 17:06 136 11.7
2015-Jan-28 17:00 136 11.7
2015-Jan-28 16:55 136 11.7
2015-Jan-28 16:50 136 11.7
2015-Jan-28 16:45 136 11.7
2015-Jan-28 16:40 137 12.2
2015-Jan-28 16:36 136 12.2
2015-Jan-28 16:30 136 12.2
2015-Jan-28 16:25 136 12.2
2015-Jan-28 16:20 134 12.2
2015-Jan-28 16:15 134 12.2
2015-Jan-28 16:10 134 12.2
2015-Jan-28 16:04 134 12.2
2015-Jan-28 16:00 136 12.2
2015-Jan-28 15:55 134 12.2
2015-Jan-28 15:50 127 12.2
2015-Jan-28 15:45 126 12.2
2015-Jan-28 15:40 126 12.2
2015-Jan-28 15:35 126 0 12.2
2015-Jan-28 15:30 134 0 12.2
2015-Jan-28 15:25 131 1 12.2
2015-Jan-28 15:20 155 3 12.2
2015-Jan-28 15:15 120 2 12.2
2015-Jan-28 15:09 131 2 12.2
2015-Jan-28 15:03 128 1 12.2
2015-Jan-28 15:00 152 1 12.2
2015-Jan-28 14:55 121 1 12.2
2015-Jan-28 14:50 113 1 12.2
2015-Jan-28 14:45 133 1 12.8
2015-Jan-28 14:39 140 0 12.8
2015-Jan-28 14:35 157 13.3
2015-Jan-28 14:30 167 13.3
2015-Jan-28 14:25 161 12.8
2015-Jan-28 14:20 167 13.3
2015-Jan-28 14:15 174 12.8
2015-Jan-28 14:09 200 13.3
2015-Jan-28 14:05 224 12.8
2015-Jan-28 14:00 223 12.8
2015-Jan-28 13:55 233 0 12.8
2015-Jan-28 13:50 184 0 12.8
2015-Jan-28 13:45 239 12.8
2015-Jan-28 13:41 191 12.8
2015-Jan-28 13:35 248 12.8
2015-Jan-28 13:30 256 12.2
2015-Jan-28 13:25 230 12.2
2015-Jan-28 13:20 243 12.2
2015-Jan-28 13:15 155 12.2
2015-Jan-28 13:11 155 12.2
2015-Jan-28 13:05 188 12.8
2015-Jan-28 13:00 179 12.8
2015-Jan-28 12:55 140 12.8
2015-Jan-28 12:50 186 12.8
2015-Jan-28 12:45 229 12.8
2015-Jan-28 12:40 192 12.8
2015-Jan-28 12:35 189 12.8
2015-Jan-28 12:30 195 0 12.8
2015-Jan-28 12:25 192 1 12.2
2015-Jan-28 12:20 175 1 12.2
2015-Jan-28 12:15 151 1 12.2
2015-Jan-28 12:10 195 0 12.2
2015-Jan-28 12:04 169 0 12.2
2015-Jan-28 12:00 195 0 12.2
2015-Jan-28 11:55 200 12.2
2015-Jan-28 11:50 200 12.2
2015-Jan-28 11:45 175 12.2
2015-Jan-28 11:40 168 12.2
2015-Jan-28 11:35 164 12.2
2015-Jan-28 11:30 191 12.2
2015-Jan-28 11:25 226 11.7
2015-Jan-28 11:20 212 11.7
2015-Jan-28 11:14 185 11.7
2015-Jan-28 11:10 188 11.7
2015-Jan-28 11:04 193 11.7
2015-Jan-28 11:00 195 11.7
2015-Jan-28 10:55 172 11.7
2015-Jan-28 10:50 223 11.7
2015-Jan-28 10:44 192 11.7
2015-Jan-28 10:40 243 11.7
2015-Jan-28 10:35 243 12.2
2015-Jan-28 10:30 237 12.2
2015-Jan-28 10:25 357 11.7
2015-Jan-28 10:20 357 11.7
2015-Jan-28 10:14 356 11.7
2015-Jan-28 10:10 360 11.7
2015-Jan-28 10:05 003 11.7
2015-Jan-28 10:00 003 11.1
2015-Jan-28 09:54 003 11.1
2015-Jan-28 09:50 003 11.1
2015-Jan-28 09:46 001 11.1
2015-Jan-28 09:40 001 11.1
2015-Jan-28 09:35 003 10.6
2015-Jan-28 09:30 001 10.6
2015-Jan-28 09:25 001 10.6
2015-Jan-28 09:20 001 10.6
2015-Jan-28 09:16 038 10.6
2015-Jan-28 09:10 038 10.6
2015-Jan-28 09:05 040 10.0
2015-Jan-28 09:00 027 10.0
2015-Jan-28 08:55 034 10.0
2015-Jan-28 08:50 360 9.4
2015-Jan-28 08:45 001 9.4
2015-Jan-28 08:40 054 9.4
2015-Jan-28 08:35 059 8.9
2015-Jan-28 08:30 059 8.3
2015-Jan-28 08:25 059 8.3
2015-Jan-28 08:20 059 1 7.8
2015-Jan-28 08:15 048 1 7.8
2015-Jan-28 08:10 059 1 7.2
2015-Jan-28 08:04 051 0 7.2
2015-Jan-28 08:00 040 7.2
2015-Jan-28 07:55 038 6.7
2015-Jan-28 07:50 037 6.7
2015-Jan-28 07:45 037 6.7
2015-Jan-28 07:40 037 6.1
2015-Jan-28 07:35 048 6.1
2015-Jan-28 07:30 049 6.1
2015-Jan-28 07:25 049 0 5.6
2015-Jan-28 07:20 049 0 5.6
2015-Jan-28 07:15 049 5.6
2015-Jan-28 07:10 049 0 5.6
2015-Jan-28 07:05 049 0 5.6
2015-Jan-28 07:00 049 0 5.6
2015-Jan-28 06:55 049 5.6
2015-Jan-28 06:49 061 6.1
2015-Jan-28 06:45 061 6.1
2015-Jan-28 05:45 059 7.2
2015-Jan-28 05:40 059 0 7.2
2015-Jan-28 05:35 062 3 7.2
2015-Jan-28 05:30 048 5 7.2
2015-Jan-28 05:25 042 6 7.2
2015-Jan-28 05:21 068 2 6.7
2015-Jan-28 05:15 054 6.7
2015-Jan-28 05:10 058 6.7
2015-Jan-28 05:05 058 6.7
2015-Jan-28 05:00 058 6.7
2015-Jan-28 04:55 058 0 6.7
2015-Jan-28 04:51 058 1 6.7
2015-Jan-28 04:45 032 0 6.1
2015-Jan-28 04:40 004 6.1
2015-Jan-28 04:35 001 1 6.1
2015-Jan-28 04:30 001 2 6.1
2015-Jan-28 04:25 353 1 6.1
2015-Jan-28 04:20 025 0 6.1
2015-Jan-28 04:15 025 0 6.1
2015-Jan-28 04:10 025 6.1
2015-Jan-28 04:05 025 0 6.1
2015-Jan-28 04:00 023 6.1
2015-Jan-28 03:55 017 0 6.1
2015-Jan-28 03:50 017 0 6.1
2015-Jan-28 03:45 017 0 6.1
2015-Jan-28 03:40 017 0 6.1
2015-Jan-28 03:35 049 0 6.1
2015-Jan-28 03:30 049 6.1
2015-Jan-28 03:25 049 6.1
2015-Jan-28 03:20 049 6.1
2015-Jan-28 03:15 049 0 6.1
2015-Jan-28 03:10 049 0 6.1
2015-Jan-28 03:05 049 6.1
2015-Jan-28 03:00 064 6.1
2015-Jan-28 02:54 062 6.1
2015-Jan-28 02:50 062 6.1
2015-Jan-28 02:45 062 6.7
2015-Jan-28 02:40 062 6.7
2015-Jan-28 02:35 064 0 6.7
2015-Jan-28 02:30 064 2 6.7
2015-Jan-28 02:24 045 2 6.7
2015-Jan-28 02:21 052 0 6.7
2015-Jan-28 02:15 048 7.2
2015-Jan-28 02:10 047 7.2
2015-Jan-28 02:05 047 7.2
2015-Jan-28 02:00 048 7.2
2015-Jan-28 01:56 048 6.7
2015-Jan-28 01:50 048 6.7
2015-Jan-28 01:45 047 6.7
2015-Jan-28 01:40 047 6.7
2015-Jan-28 01:35 047 6.7
2015-Jan-28 01:30 047 6.7
2015-Jan-28 01:26 047 0 6.7
2015-Jan-28 01:20 049 0 6.7
2015-Jan-28 01:15 048 6.7
2015-Jan-28 01:10 048 0 6.7
2015-Jan-28 01:05 047 0 6.7
2015-Jan-28 01:00 045 0 6.7
2015-Jan-28 00:56 044 6.7
2015-Jan-28 00:50 041 6.7
2015-Jan-28 00:45 041 6.7
2015-Jan-28 00:40 041 6.7
2015-Jan-28 00:35 041 7.2
2015-Jan-28 00:30 041 7.2
2015-Jan-28 00:25 041 0 7.2
2015-Jan-28 00:20 042 2 7.2
2015-Jan-28 00:15 042 1 7.2
2015-Jan-28 00:10 052 1 7.2
2015-Jan-28 00:05 055 1 7.2
2015-Jan-28 00:00 055 0 7.2
2015-Jan-27 23:55 055 0 7.2
2015-Jan-27 23:50 055 0 7.2
2015-Jan-27 23:45 052 7.2
2015-Jan-27 23:40 048 7.2
2015-Jan-27 23:35 048 7.2
2015-Jan-27 23:30 048 7.2
2015-Jan-27 23:25 044 7.2
2015-Jan-27 23:20 042 6.7
2015-Jan-27 23:15 042 6.7
2015-Jan-27 23:10 042 6.7
2015-Jan-27 23:05 042 6.7
2015-Jan-27 22:59 042 6.7
2015-Jan-27 22:55 042 7.2
2015-Jan-27 22:50 042 7.2
2015-Jan-27 22:45 042 7.2
2015-Jan-27 22:40 042 7.2
2015-Jan-27 22:35 042 7.2
2015-Jan-27 22:31 042 7.2
2015-Jan-27 22:25 042 7.8
2015-Jan-27 22:20 042 7.8
2015-Jan-27 22:15 042 7.8
2015-Jan-27 22:10 041 7.8
2015-Jan-27 22:05 042 7.8
2015-Jan-27 22:01 042 7.8
2015-Jan-27 21:55 042 7.8
2015-Jan-27 21:50 042 8.3
2015-Jan-27 21:45 041 8.3
2015-Jan-27 21:40 041 8.3
2015-Jan-27 21:35 041 8.9
2015-Jan-27 21:31 041 8.9
2015-Jan-27 21:25 041 9.4
2015-Jan-27 21:20 041 9.4
2015-Jan-27 21:15 041 9.4
2015-Jan-27 21:10 040 8.9
2015-Jan-27 21:05 061 8.9
2015-Jan-27 21:00 059 8.9
2015-Jan-27 20:55 068 8.9
2015-Jan-27 20:50 068 8.9
2015-Jan-27 20:45 068 8.9
2015-Jan-27 20:40 068 8.9
2015-Jan-27 20:35 068 8.9
2015-Jan-27 20:30 083 8.9
2015-Jan-27 20:25 083 8.9
2015-Jan-27 20:20 083 8.9
2015-Jan-27 20:15 083 8.9
2015-Jan-27 20:10 083 8.9
2015-Jan-27 20:05 083 8.9
2015-Jan-27 20:00 083 8.9
2015-Jan-27 19:55 083 8.9
2015-Jan-27 19:50 083 8.9
2015-Jan-27 19:45 083 8.9
2015-Jan-27 19:40 083 8.9
2015-Jan-27 19:34 085 8.9
2015-Jan-27 19:30 085 8.9
2015-Jan-27 19:25 085 8.9
2015-Jan-27 19:20 083 8.9
2015-Jan-27 19:15 085 8.9
2015-Jan-27 19:10 085 8.9
2015-Jan-27 19:04 088 8.9
2015-Jan-27 19:00 088 8.9
2015-Jan-27 18:55 088 9.4
2015-Jan-27 18:50 088 9.4
2015-Jan-27 18:45 088 9.4
2015-Jan-27 18:40 088 9.4
2015-Jan-27 18:36 088 9.4
2015-Jan-27 18:30 088 9.4
2015-Jan-27 18:25 088 10.0
2015-Jan-27 18:20 088 10.0
2015-Jan-27 18:15 088 10.0
2015-Jan-27 18:10 088 10.6
2015-Jan-27 18:06 088 10.6
2015-Jan-27 18:00 088 10.6
2015-Jan-27 17:55 088 10.6
2015-Jan-27 17:50 088 11.1
2015-Jan-27 17:45 088 11.1
2015-Jan-27 17:40 088 11.1
2015-Jan-27 17:35 088 11.1
2015-Jan-27 17:30 088 11.7
2015-Jan-27 17:25 088 11.7
2015-Jan-27 17:20 088 11.7
2015-Jan-27 17:15 088 11.7
2015-Jan-27 17:10 088 11.7
2015-Jan-27 17:05 086 11.7
2015-Jan-27 17:00 075 11.7
2015-Jan-27 16:55 073 11.7
2015-Jan-27 16:50 079 11.7
2015-Jan-27 16:45 088 11.7
2015-Jan-27 16:40 090 12.2
2015-Jan-27 16:35 088 12.2
2015-Jan-27 16:30 088 12.2
2015-Jan-27 16:25 120 12.2
2015-Jan-27 16:20 120 12.2
2015-Jan-27 16:15 120 12.2
2015-Jan-27 16:09 120 12.2
2015-Jan-27 16:05 120 12.2
2015-Jan-27 16:00 120 12.2
2015-Jan-27 15:55 120 12.2
2015-Jan-27 15:50 120 12.2
2015-Jan-27 15:45 120 12.2
2015-Jan-27 15:39 121 12.2
2015-Jan-27 15:36 121 12.2
2015-Jan-27 15:30 121 12.2
2015-Jan-27 15:25 121 12.2
2015-Jan-27 15:20 121 12.2
2015-Jan-27 15:13 121 12.8
2015-Jan-27 15:11 121 12.8
2015-Jan-27 15:05 121 12.8
2015-Jan-27 15:00 121 12.8
2015-Jan-27 14:55 121 12.8
2015-Jan-27 14:50 121 12.8
2015-Jan-27 14:45 121 12.8
2015-Jan-27 14:41 121 12.8
2015-Jan-27 14:35 121 12.8
2015-Jan-27 14:30 121 12.8
2015-Jan-27 14:25 121 12.8
2015-Jan-27 14:20 121 12.8
2015-Jan-27 14:15 120 12.8
2015-Jan-27 14:11 121 12.8
2015-Jan-27 14:05 120 12.8
2015-Jan-27 14:00 120 12.8
2015-Jan-27 13:55 121 12.8
2015-Jan-27 13:50 120 12.8
2015-Jan-27 13:45 121 12.8
2015-Jan-27 13:40 121 12.8
2015-Jan-27 13:35 121 12.8
2015-Jan-27 13:30 121 12.8
2015-Jan-27 13:25 121 12.8
2015-Jan-27 13:20 121 12.8
2015-Jan-27 13:15 121 12.8
2015-Jan-27 13:10 121 12.8
2015-Jan-27 13:05 121 12.8
2015-Jan-27 13:00 121 12.8
2015-Jan-27 12:55 121 12.8
2015-Jan-27 12:50 121 12.2
2015-Jan-27 12:45 121 0 12.2
2015-Jan-27 12:40 121 0 12.2
2015-Jan-27 12:35 119 0 12.2
2015-Jan-27 12:30 121 1 12.2
2015-Jan-27 12:25 117 2 12.2
2015-Jan-27 12:20 106 2 12.2
2015-Jan-27 12:14 080 2 12.8
2015-Jan-27 12:10 104 1 12.8
2015-Jan-27 12:05 121 0 12.8
2015-Jan-27 12:00 126 0 12.2